Regional Weather Roundup
Issued by NWS

Home | Current Version | Previous Version | Text Only | Print | Product List | Glossary Off
Versions: 1 2 3 4 5 6 7 8 9 10 11 12 13 14 15 16 17 18 19 20 21 22 23 24 25 26 27 28 29 30 31 32 33 34 35 36 37 38 39 40 41 42 43 44 45 46 47 48 49 50

698
ASUS43 KLMK 221202
RWRKY
KENTUCKY REGIONAL WEATHER ROUNDUP
NATIONAL WEATHER SERVICE LOUISVILLE KY
800 AM EDT FRI MAY 22 2015

NOTE "FAIR" INDICATES FEW OR NO CLOUDS BELOW 12,000 FEET
WITH NO SIGNIFICANT WEATHER AND/OR OBSTRUCTIONS TO VISIBILITY.

KYZ001>023-026-027-061>063-070>075-221300-
WESTERN AND SOUTH CENTRAL KENTUCKY

CITY           SKY/WX    TMP DP  RH WIND       PRES   REMARKS
PADUCAH        SUNNY     50  47  89 CALM      30.28R FOG
HENDERSON      SUNNY     50  45  81 SW3       30.26R
OWENSBORO      SUNNY     50  46  85 CALM      30.27R
HOPKINSVILLE   SUNNY     48  45  88 SW2       30.28R
BOWLING GREEN  SUNNY     48  44  86 NE3       30.29R FOG
GLASGOW        NOT AVBL
$$

KYZ024-025-028>034-038-045-046-053-221300-
NORTH CENTRAL KENTUCKY

CITY           SKY/WX    TMP DP  RH WIND       PRES   REMARKS
LOUISVILLE/SDF SUNNY     51  45  79 S5        30.25R
LOUISVILLE/LOU SUNNY     49  45  86 S3        30.25R
FORT KNOX      SUNNY     47  46  96 S2        30.25R
$$

KYZ035>037-039>044-047>052-055>060-089>105-221300-
NORTHEAST KENTUCKY

CITY           SKY/WX    TMP DP  RH WIND       PRES   REMARKS
LEXINGTON      SUNNY     48  44  86 SW6       30.25R
COVINGTON      SUNNY     48  44  86 SW6       30.20R
FRANKFORT      SUNNY     48  44  86 SW6       30.24R
$$

KYZ054-064>069-076>088-106>120-221300-
SOUTHEAST KENTUCKY

CITY           SKY/WX    TMP DP  RH WIND       PRES   REMARKS
JACKSON        FOG       45  44  97 CALM      30.26R VSB<1/4
LONDON         FOG       43  40  89 CALM      30.27R VSB<1/4
SOMERSET       NOT AVBL
MIDDLESBORO    CLOUDY    46  46  98 CALM      30.28R
MONTICELLO     FOG       44  44 100 CALM      30.32R VSB<1/4
$$




USA.gov is the U.S. government's official web portal to all federal, state and local government web resources and services.